Regional Weather Roundup
Issued by NWS

Home | Current Version | Previous Version | Graphics & Text | Print | Product List | Glossary On
Versions: 1 2 3 4 5 6 7 8 9 10 11 12 13 14 15 16 17 18 19 20 21 22 23 24 25 26 27 28 29 30 31 32 33 34 35 36 37 38 39 40 41 42 43 44 45 46 47 48 49 50
640
ASUS43 KMPX 061910
RWRMN
WEATHER ROUNDUP FOR MINNESOTA
NATIONAL WEATHER SERVICE TWIN CITIES/CHANHASSEN MN
200 PM CDT FRI MAY 06 2016


NOTE: "FAIR" INDICATES FEW OR NO CLOUDS BELOW 12,000 FEET WITH NO
SIGNIFICANT WEATHER AND/OR OBSTRUCTIONS TO VISIBILITY. N/A MEANS
CURRENT SKY AND/OR WEATHER CONDITIONS ARE NOT AVAILABLE.

MNZ060>063-068>070-062000-
   Twin Cities Metro

CITY           SKY/WX    TMP DP  RH WIND       PRES   REMARKS
TWIN CITIES    MOSUNNY   88  47  24 SW16G25   29.75F
ST PAUL        SUNNY     86  51  29 SW17G25   29.75F
CRYSTAL        SUNNY     89  48  24 SW16G30   29.73F
BLAINE         MOSUNNY   88  50  27 SW12      29.75F
EDEN PRAIRIE   SUNNY     90  48  23 SW20G28   29.75F
SOUTH ST PAUL  SUNNY     89  47  23 S16G23    29.75F
LAKE ELMO      FAIR      86  54  32 SW10G16   29.77F
$$
MNZ001>005-007-008-013>017-022>024-027-028-062000-
   Northwest Minnesota

CITY           SKY/WX    TMP DP  RH WIND       PRES   REMARKS
BEMIDJI        CLOUDY    78  49  35 W9        29.73F
HALLOCK        CLOUDY    64  36  34 N24G35    29.87R
ROSEAU         CLOUDY    68  43  40 N24G31    29.82R
WARROAD        CLOUDY    66  46  48 NW24G33   29.82R
THIEF RVR FALL CLOUDY    70  41  35 N24       29.84R
CROOKSTON      SUNNY     72  41  33 N26G39    29.85R
FOSSTON        SUNNY     79  43  27 NW21G29   29.80R
DETROIT LAKES  SUNNY     82  46  28 NW25G33   29.78R
MOORHEAD       CLOUDY    79  43  27 N30       29.80R
PARK RAPIDS    SUNNY     90  46  21 W13       29.71F
MAHNOMEN       FAIR      79  47  32 NW26      29.78R
$$
MNZ006-009>011-018-025>026-062000-
   North Central Minnesota

CITY           SKY/WX    TMP DP  RH WIND       PRES   REMARKS
BAUDETTE       CLOUDY    70  44  39 NW20G31   29.76R
FLAG ISLAND    CLOUDY    63  45  51 NW24      29.79R
INTL FALLS     PTSUNNY   81  46  29 NW22G30   29.67R HAZE
WASKISH        CLOUDY    77  50  38 NW16G22   29.72R
BIG FORK       CLOUDY    88  43  20 W13G22    29.68R
LONGVILLE      SUNNY     90  46  22 SW13G21   29.70F
GRAND RAPIDS   SUNNY     88  46  23 W16G23    29.70F
CRANE LAKE     MOSUNNY   86  39  19 W9G24     29.64S
ORR            CLOUDY    88  39  18 NW15G21   29.62F
COOK           MOSUNNY   84  43  23 SW16G22   29.66S
WALKER         FAIR      86  47  26 NW15G21   29.70S
$$
MNZ012-019>021-037-062000-
   Northeast Minnesota

CITY           SKY/WX    TMP DP  RH WIND       PRES   REMARKS
DULUTH         MOSUNNY   91  44  19 W21G29    29.68F
ELY            PTSUNNY   90  36  14 W23       29.63F
HIBBING        CLOUDY    86  43  22 W14G28    29.66F
EVELETH        CLOUDY    86  39  19 W22G29    29.68F
DULUTH HARBOR  SUNNY     90  43  19 W18G24    29.64F
TWO HARBORS    SUNNY     91  55  29 SW15G22   29.63F
SILVER BAY     MOSUNNY   90  39  17 SW9G21    29.62F
GRAND MARAIS     N/A     46  36  68 E6        29.63F
G MARAIS ARPRT MOSUNNY   79  37  22 S9G20     29.67F
$$
MNZ029>031-032-039>041-046>048-054>057-064-062000-
   West Central Minnesota

CITY           SKY/WX    TMP DP  RH WIND       PRES   REMARKS
FERGUS FALLS   SUNNY     86  54  32 NW8       29.70F
WHEATON        SUNNY     91  54  27 NW10      29.75F
MORRIS         SUNNY     88  52  29 NW7       29.73F
ALEXANDRIA     MOSUNNY   82  52  35 MISG      29.77F
ELBOW LAKE     FAIR      86  51  29 NW8       29.75S
WADENA         MOSUNNY   84  52  32 W5        29.73F
GLENWOOD       MOSUNNY   82  52  34 SW10      29.77F
APPLETON       MOSUNNY   88  48  25 NW14      29.74F
BENSON         SUNNY     86  46  25 NW9G17    29.75S
ORTONVILLE     SUNNY     88  52  29 NW10      29.75F
MADISON        MOSUNNY   84  52  32 NW10      29.76S
WILLMAR        FAIR      88  54  31 W16G24    29.75F
$$
MNZ033>034-036-042>043-049>051-058-059-062000-
   Central Minnesota

CITY           SKY/WX    TMP DP  RH WIND       PRES   REMARKS
ST CLOUD       SUNNY     87  50  27 SW15      29.73F
SAUK CENTRE      N/A     82  53  37 W12G18    29.76S
PAYNESVILLE    SUNNY     87  48  25 SW13G22   29.75F
AITKIN         MOSUNNY   91  37  15 SW13      29.69F
PINE RIVER     MOSUNNY   88  55  33 SW7G16    29.74F
BRAINERD       CLOUDY    85  51  31 SW13      29.72S
STAPLES        PTSUNNY   86  48  26 W8        29.73F
LONG PRAIRIE   FAIR      81  52  36 SW7       29.76S
LITTLE FALLS   MOSUNNY   82  46  28 SW8       29.74F
LITCHFIELD     SUNNY     90  48  24 W12G22    29.72F
BUFFALO        SUNNY     88  48  24 SW16G24   29.74F
MAPLE LAKE     SUNNY     88  53  29 SW15G22   29.74F
HUTCHINSON     CLOUDY    90  53  27 SW23G30   29.75F
$$
MNZ037-044-045-052-053-062000-
   East Central Minnesota

CITY           SKY/WX    TMP DP  RH WIND       PRES   REMARKS
PRINCETON      SUNNY     91  50  24 S15G22    29.72F
MORA           SUNNY     86  50  28 SW13G22   29.75S
CAMBRIDGE        N/A     90  63  40 S15G23    29.72F HX  90
RUSH CITY      SUNNY     86  50  29 W13G18    29.74F
MOOSE LAKE     SUNNY     91  50  24 SW13G20   29.68F
HINCKLEY       FAIR      86  52  30 SW17      29.72F
CLOQUET        SUNNY     90  36  14 SW12G18   29.69F
MCGREGOR       SUNNY     86  50  28 SW9G18    29.71F
$$
MNZ071>073-080-081-089-090-097-098-062000-
   Southwest Minnesota

CITY           SKY/WX    TMP DP  RH WIND       PRES   REMARKS
MONTEVIDEO     SUNNY     90  52  27 N15       29.76S
GRANITE FALLS  CLOUDY    91  53  26 W22G30    29.76F
CANBY          PTSUNNY   87  57  35 NW12G23   29.78S
MARSHALL       SUNNY     87  52  29 W28G33    29.76R
REDWOOD FALLS  SUNNY     90  47  22 W23G40    29.74F
OLIVIA         SUNNY     82  46  28 W17G32    29.73F
PIPESTONE      CLOUDY    84  43  23 W26G32    29.84F
WINDOM         SUNNY     86  45  23 SW25G35   29.82F
WORTHINGTON    SUNNY     85  50  29 SW22G32   29.84F
JACKSON        SUNNY     86  37  17 SW25G31   29.86F
TRACY          SUNNY     89  51  26 W23G35    29.79F
SLAYTON        SUNNY     84  47  27 SW30G39   29.84F
$$
MNZ065>067-074>077-082>085-091>093-062000-
   South Central Minnesota

CITY           SKY/WX    TMP DP  RH WIND       PRES   REMARKS
MANKATO        SUNNY     90  45  20 SW26G36   29.79F
NEW ULM        SUNNY     88  46  23 SW23G32   29.77F
ST JAMES       SUNNY     82  43  24 SW28      29.81F
FAIRMONT       SUNNY     84  36  17 SW23G30   29.84F
GLENCOE        SUNNY     90  50  25 SW20G33   29.75F
FARIBAULT      SUNNY     88  46  23 SW16G26   29.81F
OWATONNA       SUNNY     90  39  17 W25G31    29.82F
WASECA         SUNNY     86  45  23 SW22G29   29.83F
ALBERT LEA     SUNNY     88  39  18 SW13G23   29.84F
$$
MNZ078>079-086>088-094>096-062000-
   Southeast Minnesota

CITY           SKY/WX    TMP DP  RH WIND       PRES   REMARKS
ROCHESTER      SUNNY     89  44  20 SW20G29   29.84F
RED WING       SUNNY     90  41  18 W18G24    29.76F
STANTON        SUNNY     87  43  21 SW22G29   29.78F
DODGE CENTER   SUNNY     86  41  20 W22G30    29.84F
WINONA         SUNNY     90  41  18 SW7       29.80F
AUSTIN         SUNNY     84  41  21 W18G28    29.85F
PRESTON        SUNNY     85  38  18 W17G24    29.86F
$$
ABBREVIATIONS USED IN REMARKS
   TC - TEMPERATURES IN CELSIUS
  WCI - WIND CHILL INDEX
   HX - HEAT INDEX
  VSB - VISIBILITY
$$




USA.gov is the U.S. government's official web portal to all federal, state and local government web resources and services.